Погода в Берездове

Украина / Хмельницкая область     50°27′20″N   27°07′09″E
темп.,
°C
ветер,
м/с
пор.,
м/с
влажн.,
%
обл.,
%
осадки,
мм/ч
давл.,
гПа
погр.,
м
17 мая, вт
вт1700:00+8ссз227169 0.0 102020
03:00+7юз226663 0.0 101910
06:00+7зюз3369100 0.0 101846
09:00+12зсз5765100 0.0 1017440
12:00+15сз6105767 0.1 10171766
15:00+15сз8104725 0.1 10161851
18:00+13ссз795286 0.0 10161769
21:00+7сз496261 0.0 1017195
18 мая, ср
ср1800:00+5сз49730 0.0 1018218
03:00+3сз511845 0.0 1020375
06:00+4сз5118370 0.0 1020704
09:00+7ссз8126845 0.0 1022938
12:00+11ссз81154100 0.0 10231697
15:00+13ссз895395 0.0 10241829
18:00+14ссз695711 0.0 10241776
21:00+8сз46745 0.0 102692
19 мая, чт
чт1900:00+6сз47845 0.0 1028113
03:00+5сз36895 0.0 102892
06:00+5зсз36927 0.0 102995
09:00+11сз466818 0.0 1029457
12:00+15зсз56525 0.0 10281222
15:00+17зсз574879 0.0 10271462
18:00+17зсз5757100 0.0 10261287
21:00+12з4574100 0.0 102666
20 мая, пт
пт2000:00+10з337572 0.0 102628
03:00+8юз337771 0.0 102528
06:00+8юз358127 0.0 102571
09:00+14юз4665100 0.0 1024271
12:00+19зюз6853100 0.0 1021823
15:00+20зюз6954100 0.0 10191089
18:00+20з5106241 0.0 10181156
21:00+15зюз4118198 0.0 1017197
21 мая, сб
сб2100:00+14зюз51383100 0.0 1015298
03:00+15юз61280100 0.1 1013299
06:00+13зюз51586100 0.4 1012421
09:00+13зюз51689100 1.3 1010572
12:00+18з10168546 0.3 10081177
15:00+19зсз9147877 0.8 10091270
18:00+19зсз81277100 0.6 10091097
21:00+14зсз369395 0.8 1010122